Terminal Aerodrome Forecast
Issued by NWS Buffalo, NY

Home | Current Version | Previous Version | Text Only | Print | Product List | Glossary On
Versions: 1 2 3 4 5 6 7 8 9 10 11 12 13 14 15 16 17 18 19 20 21 22 23 24 25
000
FTUS41 KBUF 271100
TAFART
TAF
KART 271130Z 2712/2812 04012KT P6SM OVC100
     FM271900 02016KT P6SM OVC130
     FM280000 02014KT P6SM OVC035
     FM280100 01013KT P6SM OVC200
     FM280600 36009KT P6SM BKN200
     FM281000 35005KT P6SM BKN200=

USA.gov is the U.S. government's official web portal to all federal, state and local government web resources and services.